Flag for U.S.A. Weather past 2 weeks in Buffalo, New York, U.S.A.

Now
49 °F

Partly sunny.


Feels Like: 45 °F
Forecast: 33 / 50 °F
Wind: 8 mph from Northwest

Location: Greater Buffalo International Airport

Current Time: Apr 26, 2015 at 12:44:22 PM

Latest Report: Apr 26, 2015 at 11:54 AM


Visibility: 10 mi

Pressure: 29.83 "Hg

Humidity: 52%

Dew point: 32 °F

Location of BuffaloLocation

Historic Weather in Buffalo — Graph

°F

Buffalo temperature yesterday

Maximum temperature yesterday: 50 °F (at 2:54 PM)
Minimum temperature yesterday: 28 °F (at 6:54 AM)
Average temperature yesterday: 40 °F

Past Weeks' High & Low Weather Summary

 TemperatureHumidityPressure
High77 °F (Apr 13, 1:54 PM)97% (Apr 17, 5:54 AM)30.41 "Hg (Apr 17, 5:54 AM)
Low28 °F (Apr 25, 6:54 AM)16% (Apr 16, 2:54 PM)29.39 "Hg (Apr 20, 3:54 PM)
Average47 °F61%29.98 "Hg
* Reported Apr 11 10:54 AM — Apr 26 10:54 AM, Buffalo, Weather by CustomWeather, © 2015

Note: Actual official high and low records may vary slightly from our data, if they occured in-between our weather recording intervals... More about our weather records

Advertising

Buffalo weather history for previous 24 hours

 ConditionsComfort  
Time TempWeatherWind HumidityBarometerVisibility
10:54 AM
Sun, Apr 26
47 °FBroken clouds.8 mph56%29.85 "Hg10 mi
9:54 AM43 °FPartly sunny.8 mph62%29.85 "Hg10 mi
8:54 AM40 °FPartly sunny.3 mph70%29.85 "Hg10 mi
7:54 AM37 °FPartly sunny.5 mph76%29.84 "Hg10 mi
6:54 AM34 °FPassing clouds.No wind79%29.82 "Hg10 mi
5:54 AM34 °FPassing clouds.3 mph76%29.80 "Hg10 mi
4:54 AM35 °FPassing clouds.No wind70%29.79 "Hg10 mi
3:54 AM35 °FPassing clouds.No wind70%29.78 "Hg10 mi
2:54 AM38 °FPassing clouds.No wind63%29.78 "Hg10 mi
1:54 AM37 °FPassing clouds.3 mph65%29.78 "Hg10 mi
12:54 AM37 °FPassing clouds.7 mph65%29.79 "Hg10 mi
11:54 PM
Sat, Apr 25
40 °FPassing clouds.3 mph55%29.80 "Hg10 mi
10:54 PM41 °FPassing clouds.5 mph55%29.81 "Hg10 mi
9:54 PM43 °FPassing clouds.3 mph49%29.82 "Hg10 mi
8:54 PM45 °FPassing clouds.3 mph45%29.82 "Hg10 mi
7:54 PM46 °FScattered clouds.7 mph42%29.81 "Hg10 mi
6:54 PM49 °FScattered clouds.12 mph38%29.80 "Hg10 mi
5:54 PM50 °FPassing clouds.10 mph39%29.80 "Hg10 mi
4:54 PM50 °FPassing clouds.12 mph39%29.81 "Hg10 mi
3:54 PM49 °FScattered clouds.10 mph41%29.84 "Hg10 mi
2:54 PM50 °FScattered clouds.8 mph41%29.87 "Hg10 mi
1:54 PM48 °FPassing clouds.7 mph41%29.90 "Hg10 mi
12:54 PM47 °FPassing clouds.10 mph44%29.93 "Hg10 mi
Weather by CustomWeather, © 2015

See weather overviewHow to use our weather pages